Regional Weather Roundup
Issued by NWS

Home | Current Version | Previous Version | Graphics & Text | Print | Product List | Glossary On
Versions: 1 2 3 4 5 6 7 8 9 10 11 12 13 14 15 16 17 18 19 20 21 22 23 24 25 26 27 28 29 30 31 32 33 34 35 36 37 38 39 40 41 42 43 44 45 46 47 48 49 50
000
ASUS43 KMPX 292301
RWRMN
WEATHER ROUNDUP FOR MINNESOTA
NATIONAL WEATHER SERVICE TWIN CITIES/CHANHASSEN MN
600 PM CDT MON SEP 29 2014


NOTE: "FAIR" INDICATES FEW OR NO CLOUDS BELOW 12,000 FEET WITH NO
SIGNIFICANT WEATHER AND/OR OBSTRUCTIONS TO VISIBILITY. N/A MEANS
CURRENT SKY AND/OR WEATHER CONDITIONS ARE NOT AVAILABLE.

MNZ060>063-068>070-300000-
   Twin Cities Metro

CITY           SKY/WX    TMP DP  RH WIND       PRES   REMARKS
TWIN CITIES    MOCLDY    56  45  66 NE13G22   30.11S
ST PAUL        MOCLDY    56  46  69 NE8       30.12S
CRYSTAL        PTCLDY    57  44  62 NE12      30.10F
BLAINE         PTCLDY    57  46  67 NE10      30.12S
LAKEVILLE      CLOUDY    55  46  71 NE9       30.11R
EDEN PRAIRIE   CLOUDY    56  46  69 NE12      30.10S
SOUTH ST PAUL  MOCLDY    57  45  64 NE8       30.11S
LAKE ELMO      MOCLDY    55  46  71 NE9       30.12S
$$
MNZ001>005-007-008-013>017-022>024-027-028-300000-
   Northwest Minnesota

CITY           SKY/WX    TMP DP  RH WIND       PRES   REMARKS
BEMIDJI        CLEAR     54  43  66 SE10      30.14F
HALLOCK        CLOUDY    55  46  71 NE6       30.14F
ROSEAU         MOCLDY    54  46  76 E10       30.16F
WARROAD        CLOUDY    52  46  82 NE10      30.17F
THIEF RVR FALL SUNNY     55  43  62 E10       30.13F
CROOKSTON      SUNNY     59  46  63 E7        30.12F
FOSSTON        SUNNY     63  54  72 CALM      30.13S
DETROIT LAKES  SUNNY     59  45  58 SE9       30.12S
PARK RAPIDS    CLEAR     56  43  61 SE10      30.13F
MAHNOMEN       FAIR      60  44  54 E8        30.11S
$$
MNZ006-009>011-018-025>026-300000-
   North Central Minnesota

CITY           SKY/WX    TMP DP  RH WIND       PRES   REMARKS
BAUDETTE       CLOUDY    52  43  71 E9        30.17F
FLAG ISLAND    MOCLDY    54  43  66 E3        30.17F
INTL FALLS     CLOUDY    46  40  79 E7        30.20F
WASKISH        CLEAR     54  45  71 CALM      30.17S
BIG FORK       CLEAR     54  43  66 NE5       30.17F
LONGVILLE      PTCLDY    54  45  71 E5        30.15F
GRAND RAPIDS   CLOUDY    50  39  66 E5        30.17F
CRANE LAKE     CLOUDY    43  39  87 NE3       30.23S
ORR            CLOUDY    45  37  76 CALM      30.18F
COOK           CLOUDY    46  39  76 E5        30.20F
WALKER         MOCLDY    54  44  67 E6        30.15S
$$
MNZ012-019>021-037-300000-
   Northeast Minnesota

CITY           SKY/WX    TMP DP  RH WIND       PRES   REMARKS
DULUTH         CLOUDY    44  39  82 E10       30.19S
ELY            CLOUDY    45  37  76 CALM      30.20S
HIBBING        CLOUDY    51  41  68 E8        30.18S
EVELETH        CLOUDY    48  41  76 N3        30.19S
DULUTH HARBOR  CLOUDY    48  43  81 E13       30.21F
TWO HARBORS    CLOUDY    45  37  76 E7        30.19S
SILVER BAY     CLEAR     43  41  93 E6        30.19S
GRAND MARAIS     N/A     47  41  80 W3        30.22S
G MARAIS ARPRT CLOUDY    39  34  81 N5        30.21R
$$
MNZ029>031-032-039>041-046>048-054>057-064-300000-
   West Central Minnesota

CITY           SKY/WX    TMP DP  RH WIND       PRES   REMARKS
FERGUS FALLS   SUNNY     57  45  62 E9        30.11S
WHEATON        SUNNY     55  46  71 E10       30.10F
MORRIS         MOSUNNY   57  48  72 E8        30.10S
ALEXANDRIA     CLOUDY    52  45  77 E12       30.13F
ELBOW LAKE     PTSUNNY   56  46  70 SE9       30.11S
WADENA         MOSUNNY   54  45  71 E10       30.13S
GLENWOOD       PTSUNNY   54  46  76 NE9       30.12S
APPLETON       CLOUDY    59  48  67 E8        30.08F
BENSON         CLOUDY    55  48  76 SE8       30.10F
ORTONVILLE     CLOUDY    57  48  72 E9        30.08F
MADISON        MOSUNNY   61  52  72 E10       30.08F
WILLMAR        FAIR      57  46  67 E12       30.11F
$$
MNZ033>034-036-042>043-049>051-058-059-300000-
   Central Minnesota

CITY           SKY/WX    TMP DP  RH WIND       PRES   REMARKS
ST CLOUD       MOCLDY    57  45  64 NE9       30.13S
SAUK CENTRE    CLOUDY    54  46  74 E14       30.12F
PAYNESVILLE    CLOUDY    52  45  76 NE9       30.12S
AITKIN         CLOUDY    54  45  71 E6        30.15S
PINE RIVER     PTCLDY    52  43  71 E7        30.18F
BRAINERD       CLOUDY    51  43  74 E7        30.16F
STAPLES        MOCLDY    52  43  71 E5        30.15S
LONG PRAIRIE   CLOUDY    52  45  76 E12       30.14S
LITTLE FALLS   MOCLDY    52  43  71 NE5       30.14S
LITCHFIELD     CLOUDY    55  48  76 E12       30.12S HAZE
BUFFALO        MOCLDY    57  44  62 NE9       30.12F
MAPLE LAKE     MOCLDY    56  47  72 NE9       30.13S
$$
MNZ037-044-045-052-053-300000-
   East Central Minnesota

CITY           SKY/WX    TMP DP  RH WIND       PRES   REMARKS
PRINCETON      MOCLDY    55  45  67 NE12G17   30.14S
MORA           MOCLDY    48  41  76 NE6       30.17S
CAMBRIDGE      PTCLDY    55  43  62 N7        30.12S
RUSH CITY      PTCLDY    50  42  73 NE6       30.15R
MOOSE LAKE     CLOUDY    45  37  76 NE8       30.17F
HINCKLEY       MOCLDY    48  41  76 N8        30.16S
CLOQUET        CLOUDY    45  39  81 E8        30.18F
MCGREGOR       CLOUDY    50  43  76 E7        30.17F
$$
MNZ071>073-080-081-089-090-097-098-300000-
   Southwest Minnesota

CITY           SKY/WX    TMP DP  RH WIND       PRES   REMARKS
MONTEVIDEO     MOSUNNY   61  50  67 SE9       30.09S
GRANITE FALLS  SUNNY     60  49  67 NE13      30.09S
CANBY          MOSUNNY   59  51  74 NE12      30.07F
MARSHALL       SUNNY     61  48  63 E14       30.05F
REDWOOD FALLS  SUNNY     60  49  66 E10G18    30.08S
OLIVIA         MOSUNNY   57  46  67 NE8       30.08F
PIPESTONE      MOSUNNY   64  54  68 E8        30.03F
WINDOM         SUNNY     64  52  63 NE9       30.05S
WORTHINGTON    SUNNY     64  54  68 E12       30.04F
JACKSON        SUNNY     64  52  63 E8        30.05S
TRACY          SUNNY     61  50  69 NE12G20   30.06S
SLAYTON        MOSUNNY   64  51  62 NE13      30.05F
$$
MNZ065>067-074>077-082>085-091>093-300000-
   South Central Minnesota

CITY           SKY/WX    TMP DP  RH WIND       PRES   REMARKS
MANKATO        PTCLDY    57  46  67 NE14G20   30.08S
NEW ULM        MOSUNNY   59  48  67 NE12      30.08R
ST JAMES       MOSUNNY   61  50  67 NE9       30.08R
FAIRMONT       SUNNY     66  48  52 NE10G18   30.04F
GLENCOE        CLOUDY    57  46  67 N7        30.11R
FARIBAULT      CLOUDY    61  45  55 N8        30.10R
OWATONNA       PTCLDY    57  48  72 NE12      30.08S
WASECA         CLEAR     55  45  67 N10G17    30.09S
ALBERT LEA     CLEAR     63  52  67 NE10      30.06S
$$
MNZ078>079-086>088-094>096-300000-
   Southeast Minnesota

CITY           SKY/WX    TMP DP  RH WIND       PRES   REMARKS
ROCHESTER      PTCLDY    55  48  77 NE10      30.09R
RED WING       MOCLDY    59  46  63 NE6       30.08S
STANTON        CLOUDY    58  47  66 N12       30.09R
DODGE CENTER   PTCLDY    57  48  72 NE7       30.08S
WINONA         MOCLDY    55  48  76 E3        30.07F
AUSTIN         CLEAR     61  52  72 N13       30.06S
PRESTON        CLOUDY    54  49  82 N12       30.07S
$$
ABBREVIATIONS USED IN REMARKS
   TC - TEMPERATURES IN CELSIUS
  WCI - WIND CHILL INDEX
   HX - HEAT INDEX
  VSB - VISIBILITY
$$



USA.gov is the U.S. government's official web portal to all federal, state and local government web resources and services.